This is the latest recevied weather packets stored in our database for station/object N4NVD-13. If no packets are shown the sender has not sent any weather packets the latest 10 day(s).
| Time | Temp. | Humidity | Pressure | Rain* | Wind** | Luminosity | Snow |
|---|---|---|---|---|---|---|---|
| 1777940083 | 25.56° C | 79% | 1008.2 hPa | 0 mm | - | 65 W/m² | - |
| 1777939779 | 25.56° C | 78% | 1008.2 hPa | 0 mm | - | 73 W/m² | - |
| 1777939478 | 25.56° C | 78% | 1008.3 hPa | 0 mm | - | 65 W/m² | - |
| 1777939174 | 25.56° C | 78% | 1008.4 hPa | 0 mm | - | 55 W/m² | - |
| 1777938871 | 25.56° C | 77% | 1008.3 hPa | 0 mm | - | 54 W/m² | - |
| 1777938567 | 26.11° C | 76% | 1008.5 hPa | 0 mm | - | 109 W/m² | - |
| 1777938265 | 26.11° C | 76% | 1008.7 hPa | 0 mm | - | 106 W/m² | - |
| 1777937961 | 26.11° C | 76% | 1008.6 hPa | 0 mm | - | 110 W/m² | - |
| 1777937657 | 26.11° C | 76% | 1008.4 hPa | 0 mm | - | 94 W/m² | - |
| 1777937354 | 26.11° C | 75% | 1008.6 hPa | 0 mm | - | 113 W/m² | - |
| 1777937051 | 26.11° C | 74% | 1008.6 hPa | 0 mm | - | 115 W/m² | - |
| 1777936748 | 26.67° C | 74% | 1008.7 hPa | 0 mm | - | 119 W/m² | - |
| 1777936444 | 26.67° C | 73% | 1008.8 hPa | 0 mm | - | 120 W/m² | - |
| 1777936141 | 26.67° C | 73% | 1008.9 hPa | 0 mm | - | 152 W/m² | - |
| 1777935838 | 26.67° C | 73% | 1008.8 hPa | 0 mm | - | 141 W/m² | - |
| 1777935537 | 26.67° C | 73% | 1008.6 hPa | 0 mm | - | 157 W/m² | - |
| 1777935233 | 27.22° C | 72% | 1008.7 hPa | 0 mm | - | 139 W/m² | - |
| 1777934931 | 27.78° C | 69% | 1008.6 hPa | 0 mm | - | 166 W/m² | - |
| 1777934627 | 27.78° C | 68% | 1008.8 hPa | 0 mm | - | 340 W/m² | - |
| 1777934324 | 27.78° C | 68% | 1008.9 hPa | 0 mm | - | 292 W/m² | - |
| 1777934019 | 27.22° C | 70% | 1009 hPa | 0 mm | - | 179 W/m² | - |
| 1777933716 | 27.22° C | 70% | 1009.1 hPa | 0 mm | - | 229 W/m² | - |
| 1777933413 | 27.78° C | 67% | 1009 hPa | 0 mm | - | 280 W/m² | - |
| 1777933112 | 27.78° C | 70% | 1009.1 hPa | 0 mm | - | 378 W/m² | - |
| 1777932808 | 27.78° C | 69% | 1008.9 hPa | 0 mm | - | 218 W/m² | - |
* Rain latest hour (hover to see other rain measurements)
** Current wind speed in m/s (hover to see current wind gust speed)